Weather History for Sioux City, IA

Change the Weather History Date:

Wednesday, July 25, 2012

  Actual Average Record
Temperature  
Mean Temperature 85 °F 74 °F  
Max Temperature 99 °F 85 °F 108 °F (1936)
Min Temperature 70 °F 63 °F 47 °F (2004)
Degree Days  
Heating Degree Days 0 0  
Month to date heating degree days 0 0  
Since 1 June heating degree days 14 27  
Since 1 July heating degree days 0 0  
Cooling Degree Days 20 9  
Month to date cooling degree days 400 242  
Year to date cooling degree days 830 494  
Since 1 June cooling degree days 665 430  
Growing Degree Days 37 (Base 50)    
Moisture  
Dew Point 68 °F    
Average Humidity 58    
Maximum Humidity 93    
Minimum Humidity 33    
Precipitation  
Precipitation 0.15 in 0.11 in 1.60 in (1922)
Month to date precipitation 0.78 2.81  
Year to date precipitation 17.43 16.68  
Snow  
Snow 0.00 in 0.00 in 0.00 in ()
Month to date snowfall 0.0 0.0  
Since 1 June snowfall 0.0 0.0  
Since 1 July snowfall 0.0 0.0  
Snow Depth 0.00 in    
Sea Level Pressure  
Sea Level Pressure 29.64 in    
Wind  
Wind Speed 8 mph (West)    
Max Wind Speed 32 mph    
Max Gust Speed 41 mph    
Visibility 10 miles    
Events Rain , Thunderstorm    
T = Trace of Precipitation, MM = Missing Value Source: NWS Daily Summary

Daily Weather History Graph

Daily Weather History Graph

Search for Another Location

Airport:

Trip Planner

Search our weather history database for the weather conditions in past years. The results will help you decide how hot, cold, wet, or windy it might be!

Date:

Astronomy

Jul. 25, 2012 Rise Set
Actual Time 6:11 AM CDT 8:51 PM CDT
Civil Twilight 5:38 AM CDT 9:24 PM CDT
Nautical Twilight 4:58 AM CDT 10:05 PM CDT
Astronomical Twilight 4:11 AM CDT 10:51 PM CDT
Moon 1:28 PM CDT (7/25) No Moon Set
Length of Visible Light 15h 45m
Length of Day
14h 40m
Waxing Crescent, 42% of the Moon is Illuminated
Jul 25
Waxing Crescent
Jul 26
First Quarter
Aug 1
Full
Aug 9
Last Quarter
Aug 17
New

Hourly Weather History & Observations

Time (CDT) Temp. Heat Index Dew Point Humidity Pressure Visibility Wind Dir Wind Speed Gust Speed Precip Events Conditions
12:52 AM 79.0 °F - 68.0 °F 69% 29.68 in 10.0 mi ESE 8.1 mph - N/A   Clear
1:52 AM 77.0 °F - 66.9 °F 71% 29.66 in 10.0 mi ESE 6.9 mph - N/A   Partly Cloudy
2:52 AM 79.0 °F - 66.0 °F 64% 29.64 in 10.0 mi SE 8.1 mph - N/A   Clear
3:52 AM 86.0 °F 86.8 °F 63.0 °F 46% 29.62 in 10.0 mi South 12.7 mph 19.6 mph N/A   Clear
4:52 AM 84.9 °F 85.9 °F 63.0 °F 48% 29.61 in 10.0 mi South 15.0 mph 23.0 mph N/A   Clear
5:52 AM 82.9 °F 84.0 °F 63.0 °F 51% 29.62 in 10.0 mi South 13.8 mph - N/A   Clear
6:52 AM 82.0 °F 83.1 °F 63.0 °F 52% 29.61 in 10.0 mi South 9.2 mph 19.6 mph N/A   Clear
7:52 AM 82.9 °F 84.4 °F 64.0 °F 53% 29.62 in 10.0 mi South 9.2 mph - N/A   Clear
8:52 AM 84.0 °F 86.3 °F 66.0 °F 55% 29.63 in 10.0 mi SW 9.2 mph - N/A   Clear
9:52 AM 87.1 °F 89.2 °F 66.0 °F 49% 29.63 in 10.0 mi WSW 12.7 mph - N/A   Clear
10:52 AM 88.0 °F 91.4 °F 68.0 °F 51% 29.62 in 10.0 mi WSW 8.1 mph - N/A   Clear
11:52 AM 91.0 °F 95.6 °F 69.1 °F 48% 29.62 in 10.0 mi West 5.8 mph - N/A   Clear
12:52 PM 95.0 °F 100.7 °F 69.1 °F 43% 29.62 in 10.0 mi NW 8.1 mph - N/A   Clear
1:52 PM 97.0 °F 103.5 °F 70.0 °F 41% 29.62 in 10.0 mi NW 8.1 mph 17.3 mph N/A   Clear
2:52 PM 99.0 °F 105.5 °F 69.1 °F 38% 29.61 in 10.0 mi Variable 5.8 mph - N/A   Clear
3:52 PM 98.1 °F 106.5 °F 71.1 °F 42% 29.62 in 10.0 mi NW 12.7 mph - N/A   Clear
4:52 PM 96.1 °F 99.9 °F 66.9 °F 38% 29.62 in 10.0 mi NW 10.4 mph - N/A   Scattered Clouds
5:06 PM 96.8 °F 100.7 °F 66.2 °F 37% 29.65 in 10.0 mi NNW 10.4 mph - N/A Thunderstorm Thunderstorm
5:52 PM 82.0 °F 88.6 °F 75.0 °F 79% 29.64 in 7.0 mi NNW 16.1 mph 23.0 mph 0.15 in Rain , Thunderstorm Light Thunderstorms and Rain
6:39 PM 82.4 °F 87.2 °F 71.6 °F 70% 29.69 in 10.0 mi NNW 8.1 mph 17.3 mph 0.00 in   Scattered Clouds
6:52 PM 82.9 °F 88.0 °F 72.0 °F 69% 29.67 in 10.0 mi NNW 5.8 mph - 0.00 in   Scattered Clouds
7:52 PM 79.0 °F - 75.0 °F 88% 29.69 in 10.0 mi Calm Calm - 0.00 in Rain Light Rain
8:52 PM 79.0 °F - 73.9 °F 84% 29.68 in 10.0 mi East 5.8 mph - 0.00 in   Clear
9:52 PM 79.0 °F - 71.1 °F 77% 29.70 in 10.0 mi NE 4.6 mph - N/A   Clear
10:52 PM 75.0 °F - 71.1 °F 87% 29.69 in 10.0 mi North 4.6 mph - N/A   Clear
11:52 PM 72.0 °F - 70.0 °F 93% 29.69 in 10.0 mi Calm Calm - N/A   Clear